EW3721 Weather Reports


Display with metric or nautical units.
time (UTC)temp
F
wind
direction
speed
MPH
gust
MPH
rain 1hr
in
rain 24hr
in
rain mn
in
humidity
%
barometer
mb
20260506231106 58 178 0.0 1.0 0.00 0.08 0.08 94 1007.5
20260506230606 58 178 0.0 2.0 0.00 0.08 0.08 94 1007.5
20260506230106 58 203 0.0 1.0 0.00 0.08 0.08 94 1007.4
20260506225106 58 197 1.0 2.0 0.00 0.08 0.08 94 1007.3
20260506224106 58 171 0.0 1.0 0.00 0.08 0.08 94 1007.3
20260506223605 58 171 1.0 2.0 0.00 0.08 0.08 94 1007.2
20260506223106 58 198 0.0 1.0 0.00 0.08 0.08 94 1007.2
20260506222606 58 198 0.0 1.0 0.00 0.08 0.08 94 1007.2
20260506221606 58 240 0.0 0.0 0.00 0.08 0.08 94 1007.2
20260506221106 58 240 0.0 1.0 0.00 0.08 0.08 94 1007.2
20260506220606 58 240 1.0 1.0 0.00 0.08 0.08 94 1007.2
20260506215606 58 211 1.0 3.0 0.00 0.08 0.08 94 1007.2
20260506215106 58 197 0.0 3.0 0.00 0.08 0.08 94 1007.1
20260506214606 59 189 1.0 3.0 0.00 0.08 0.08 94 1007.1
20260506213605 59 182 0.0 2.0 0.00 0.08 0.08 94 1007.0
20260506213106 59 206 0.0 1.0 0.00 0.08 0.08 94 1006.9
20260506212606 59 201 2.0 8.0 0.00 0.08 0.08 94 1006.9
20260506212106 59 172 2.0 5.0 0.00 0.08 0.08 94 1006.9
20260506211605 59 199 0.0 1.0 0.00 0.08 0.08 94 1006.9
20260506211106 59 199 1.0 3.0 0.01 0.08 0.08 93 1006.9
20260506210105 59 172 2.0 6.0 0.01 0.08 0.08 93 1007.0
20260506205606 59 240 0.0 1.0 0.01 0.08 0.08 93 1007.0
20260506205105 59 240 0.0 1.0 0.01 0.08 0.08 93 1007.2
20260506204606 59 240 1.0 3.0 0.01 0.08 0.08 93 1007.2
20260506204106 59 202 0.0 3.0 0.01 0.08 0.08 93 1007.3
20260506202605 59 181 1.0 3.0 0.01 0.08 0.08 93 1007.5
20260506202106 60 180 0.0 2.0 0.01 0.08 0.08 92 1007.6
20260506201106 60 179 0.0 2.0 0.00 0.07 0.07 92 1007.6
20260506200606 60 203 0.0 2.0 0.00 0.07 0.07 92 1007.5
20260506200106 60 182 1.0 3.0 0.00 0.07 0.07 92 1007.4
20260506195606 60 188 1.0 3.0 0.00 0.07 0.07 92 1007.5
20260506195105 60 195 0.0 3.0 0.00 0.07 0.07 92 1007.6
20260506194107 60 157 0.0 3.0 0.00 0.07 0.07 93 1007.7
20260506193606 60 220 0.0 2.0 0.00 0.07 0.07 93 1007.7
20260506192614 61 198 2.0 3.0 0.00 0.07 0.07 93 1007.8
20260506192105 61 207 2.0 6.0 0.00 0.07 0.07 93 1007.9
20260506191606 61 185 1.0 6.0 0.01 0.07 0.07 93 1008.0
20260506191106 61 223 0.0 6.0 0.02 0.07 0.07 93 1007.9
20260506190605 61 192 1.0 3.0 0.02 0.07 0.07 93 1008.0
20260506190106 61 184 2.0 5.0 0.03 0.07 0.07 93 1008.1
20260506185105 60 140 1.0 3.0 0.03 0.07 0.07 93 1008.3
20260506184606 60 228 1.0 6.0 0.03 0.07 0.07 93 1008.3
20260506183106 60 209 0.0 2.0 0.04 0.07 0.07 93 1008.4
20260506182105 60 190 2.0 6.0 0.05 0.07 0.07 91 1008.5
20260506181606 60 201 1.0 3.0 0.04 0.06 0.06 91 1008.6
20260506181105 60 223 0.0 3.0 0.04 0.05 0.05 91 1008.7
20260506180605 60 178 1.0 6.0 0.04 0.05 0.05 91 1008.7
20260506180106 60 196 2.0 3.0 0.03 0.04 0.04 91 1008.5
20260506175606 60 198 0.0 3.0 0.03 0.04 0.04 91 1008.6
20260506175106 60 221 1.0 5.0 0.03 0.04 0.04 90 1008.5
20260506174605 60 199 1.0 3.0 0.03 0.04 0.04 90 1008.4
20260506174105 60 177 2.0 12.0 0.03 0.04 0.04 90 1008.8
20260506173605 60 204 2.0 7.0 0.04 0.04 0.04 90 1008.9
20260506172605 61 202 2.0 3.0 0.03 0.03 0.03 88 1009.1
20260506171606 61 213 1.0 2.0 0.02 0.02 0.02 88 1009.4
20260506171105 61 213 0.0 2.0 0.01 0.01 0.01 87 1009.5
20260506170606 61 205 2.0 3.0 0.01 0.01 0.01 86 1009.6
20260506170105 61 206 2.0 6.0 0.01 0.01 0.01 86 1009.7
20260506165606 62 213 0.0 3.0 0.01 0.01 0.01 85 1009.8
20260506164605 62 223 1.0 3.0 0.01 0.01 0.01 83 1009.7
20260506164106 63 209 1.0 2.0 0.01 0.01 0.01 82 1009.8
20260506163605 63 221 1.0 6.0 0.00 0.00 0.00 81 1009.8
20260506163105 64 234 3.0 6.0 0.00 0.00 0.00 80 1009.8
20260506162606 64 218 1.0 3.0 0.00 0.00 0.00 79 1009.8
20260506162106 64 225 1.0 8.0 0.00 0.00 0.00 78 1009.8
20260506161605 64 208 2.0 8.0 0.00 0.00 0.00 77 1009.8
20260506161106 65 269 2.0 3.0 0.00 0.00 0.00 77 1009.8
20260506160606 65 176 3.0 9.0 0.00 0.00 0.00 77 1009.8
20260506160106 65 215 2.0 6.0 0.00 0.00 0.00 77 1009.9
20260506155106 65 213 2.0 7.0 0.00 0.00 0.00 78 1010.1
20260506154606 65 175 2.0 16.0 0.00 0.00 0.00 79 1010.0
20260506153605 65 207 2.0 6.0 0.00 0.00 0.00 79 1010.1
20260506152106 65 194 2.0 8.0 0.00 0.00 0.00 78 1010.1
20260506151605 65 198 2.0 6.0 0.00 0.00 0.00 78 1010.0
20260506151105 65 214 2.0 6.0 0.00 0.00 0.00 78 1009.9
20260506150605 65 221 1.0 3.0 0.00 0.00 0.00 77 1010.0
20260506150105 65 194 2.0 3.0 0.00 0.00 0.00 77 1010.0
20260506145606 66 189 2.0 9.0 0.00 0.00 0.00 76 1010.1
20260506145105 66 193 2.0 5.0 0.00 0.00 0.00 76 1009.9
20260506144605 66 197 1.0 8.0 0.00 0.00 0.00 75 1010.0
20260506144105 66 206 3.0 6.0 0.00 0.00 0.00 76 1010.1
20260506142606 67 207 2.0 3.0 0.00 0.00 0.00 74 1010.3
20260506142106 67 213 2.0 9.0 0.00 0.00 0.00 76 1010.2
20260506141605 67 153 3.0 5.0 0.00 0.00 0.00 76 1010.3
20260506141106 67 198 3.0 12.0 0.00 0.00 0.00 76 1010.2
20260506140606 67 190 4.0 8.0 0.00 0.00 0.00 76 1010.2
20260506140105 66 214 3.0 6.0 0.00 0.00 0.00 79 1010.2
20260506135605 66 201 1.0 5.0 0.00 0.00 0.00 78 1010.4
20260506134606 65 202 2.0 8.0 0.00 0.00 0.00 80 1010.3
20260506133106 64 203 2.0 5.0 0.00 0.00 0.00 80 1010.2
20260506132605 64 191 2.0 8.0 0.00 0.00 0.00 80 1010.0
20260506132105 64 213 2.0 7.0 0.00 0.00 0.00 80 1010.1
20260506131605 64 192 2.0 9.0 0.00 0.00 0.00 80 1010.1
20260506131105 64 204 1.0 5.0 0.00 0.00 0.00 80 1010.0
20260506130605 64 197 2.0 6.0 0.00 0.00 0.00 79 1010.1
20260506130105 64 187 4.0 7.0 0.00 0.00 0.00 80 1010.1
20260506125605 64 177 2.0 10.0 0.00 0.00 0.00 81 1010.2
20260506125105 64 136 1.0 3.0 0.00 0.00 0.00 80 1010.1
20260506124605 64 206 2.0 6.0 0.00 0.00 0.00 81 1010.2
20260506124105 64 209 2.0 6.0 0.00 0.00 0.00 81 1010.3
20260506123606 64 187 3.0 9.0 0.00 0.00 0.00 82 1010.5
20260506122105 63 181 3.0 9.0 0.00 0.00 0.00 85 1010.8
20260506121605 63 191 3.0 8.0 0.00 0.00 0.00 86 1010.6
20260506121105 62 192 3.0 9.0 0.00 0.00 0.00 87 1010.6
20260506120105 61 191 2.0 6.0 0.00 0.00 0.00 89 1010.5
20260506115605 60 188 3.0 8.0 0.00 0.00 0.00 90 1010.6
20260506115105 60 183 3.0 9.0 0.00 0.00 0.00 91 1010.5
20260506114605 59 170 1.0 5.0 0.00 0.00 0.00 91 1010.6
20260506114105 59 196 3.0 7.0 0.00 0.00 0.00 92 1010.5
20260506113105 58 196 2.0 6.0 0.00 0.00 0.00 93 1010.6
20260506112605 58 186 0.0 5.0 0.00 0.00 0.00 93 1010.6
20260506112105 58 204 1.0 5.0 0.00 0.00 0.00 93 1010.7
20260506111605 57 186 1.0 5.0 0.00 0.00 0.00 93 1010.6
20260506111106 57 192 2.0 6.0 0.00 0.00 0.00 93 1010.7
20260506110605 57 188 3.0 8.0 0.00 0.00 0.00 93 1010.8
20260506110105 57 184 1.0 7.0 0.00 0.00 0.00 93 1010.8
20260506105605 57 175 1.0 3.0 0.00 0.00 0.00 93 1010.8
20260506105105 56 196 2.0 10.0 0.00 0.00 0.00 93 1010.7
20260506104605 56 210 1.0 3.0 0.00 0.00 0.00 93 1010.6
20260506104105 56 201 2.0 9.0 0.00 0.00 0.00 93 1010.6
20260506103105 56 211 0.0 2.0 0.00 0.00 0.00 93 1010.8
20260506102605 56 211 0.0 2.0 0.00 0.00 0.00 92 1010.7
20260506102105 56 196 1.0 3.0 0.00 0.00 0.00 92 1010.7
20260506101605 56 155 0.0 2.0 0.00 0.00 0.00 92 1010.7
20260506101105 56 214 0.0 3.0 0.00 0.00 0.00 92 1010.7
20260506100605 56 212 0.0 2.0 0.00 0.00 0.00 92 1010.6
20260506100105 56 195 0.0 1.0 0.00 0.00 0.00 92 1010.6
20260506095605 56 195 0.0 1.0 0.00 0.00 0.00 91 1010.6
20260506094605 56 180 0.0 3.0 0.00 0.00 0.00 91 1010.5
20260506094105 56 173 2.0 3.0 0.00 0.00 0.00 91 1010.5
20260506093605 56 178 1.0 3.0 0.00 0.00 0.00 91 1010.5
20260506093105 56 198 0.0 3.0 0.00 0.00 0.00 91 1010.5
20260506092605 56 202 2.0 5.0 0.00 0.00 0.00 91 1010.5
20260506092105 56 193 1.0 6.0 0.00 0.00 0.00 91 1010.5
20260506091605 56 204 1.0 6.0 0.00 0.00 0.00 91 1010.7
20260506090604 56 217 1.0 3.0 0.00 0.00 0.00 91 1010.6
20260506090105 56 179 0.0 2.0 0.00 0.00 0.00 91 1010.6
20260506085605 56 144 1.0 3.0 0.00 0.00 0.00 91 1010.7
20260506085105 56 189 1.0 3.0 0.00 0.00 0.00 90 1010.7
20260506084605 56 190 0.0 3.0 0.00 0.00 0.00 90 1010.7
20260506084105 56 158 0.0 3.0 0.00 0.00 0.00 90 1010.8
20260506083605 56 208 1.0 5.0 0.00 0.00 0.00 90 1010.8
20260506083105 56 196 1.0 2.0 0.00 0.00 0.00 90 1010.8
20260506082105 56 194 1.0 3.0 0.00 0.00 0.00 90 1010.9
20260506081605 56 191 2.0 6.0 0.00 0.00 0.00 90 1010.8
20260506081105 56 208 1.0 6.0 0.00 0.00 0.00 90 1010.8
20260506080605 57 198 0.0 5.0 0.00 0.00 0.00 90 1010.7
20260506073105 57 168 1.0 5.0 0.00 0.00 0.00 88 1010.9
20260506072605 57 159 1.0 2.0 0.00 0.00 0.00 88 1010.9
20260506072104 57 202 2.0 8.0 0.00 0.00 0.00 88 1011.0
20260506071604 57 196 1.0 5.0 0.00 0.00 0.00 88 1011.0
20260506071105 57 177 0.0 7.0 0.00 0.00 0.00 88 1011.0
20260506070605 57 215 1.0 3.0 0.00 0.00 0.00 87 1011.0
20260506070105 57 171 0.0 3.0 0.00 0.00 0.00 87 1011.0
20260506062105 58 200 0.0 2.0 0.00 0.00 0.00 85 1010.9
20260506061605 58 202 0.0 0.0 0.00 0.00 0.00 84 1010.9
20260506061104 58 200 0.0 0.0 0.00 0.00 0.00 84 1010.9
20260506060605 59 200 0.0 3.0 0.00 0.00 0.00 84 1011.0
20260506051105 60 159 1.0 3.0 0.00 0.00 0.00 81 1011.2
20260506050605 60 182 0.0 1.0 0.00 0.00 0.00 80 1011.3
20260506045104 61 219 1.0 5.0 0.00 0.00 0.00 80 1011.2
20260506044605 61 240 0.0 2.0 0.00 0.00 0.00 80 1011.3
20260506044104 61 232 1.0 3.0 0.00 0.00 0.00 80 1011.3
20260506043605 61 195 1.0 3.0 0.00 0.00 0.00 80 1011.3
20260506042604 61 186 0.0 6.0 0.00 0.00 0.00 79 1011.3
20260506042105 61 180 1.0 6.0 0.00 0.00 0.00 79 1011.3
20260506041104 62 183 2.0 3.0 0.00 0.00 0.00 78 1011.3
20260506040604 62 188 2.0 10.0 0.00 0.00 0.00 78 1011.3
20260506040105 62 212 1.0 5.0 0.00 0.00 0.00 78 1011.4
20260506034604 62 199 1.0 7.0 0.00 0.00 0.00 77 1011.3
20260506034104 62 207 1.0 3.0 0.00 0.00 0.00 77 1011.2
20260506033605 62 148 1.0 5.0 0.00 0.00 0.00 77 1011.3
20260506033105 62 173 1.0 3.0 0.00 0.00 0.00 76 1011.2
20260506032605 62 205 2.0 3.0 0.00 0.00 0.00 76 1011.2
20260506032104 62 213 3.0 6.0 0.00 0.00 0.00 76 1011.2
20260506031104 62 193 2.0 5.0 0.00 0.00 0.00 75 1011.2
20260506030105 62 214 3.0 6.0 0.00 0.00 0.00 75 1011.3
20260506025605 62 193 2.0 8.0 0.00 0.00 0.00 74 1011.3
20260506025106 62 204 1.0 6.0 0.00 0.00 0.00 74 1011.3
20260506024105 62 210 1.0 9.0 0.00 0.00 0.00 74 1011.4
20260506023605 62 202 2.0 5.0 0.00 0.00 0.00 74 1011.3
20260506023104 62 193 1.0 5.0 0.00 0.00 0.00 74 1011.2
20260506022604 62 185 3.0 6.0 0.00 0.00 0.00 74 1011.3
20260506022104 62 234 1.0 6.0 0.00 0.00 0.00 74 1011.2
20260506021604 62 200 1.0 5.0 0.00 0.00 0.00 73 1011.2
20260506021104 62 205 2.0 7.0 0.00 0.00 0.00 73 1011.1
20260506020604 62 183 1.0 3.0 0.00 0.00 0.00 73 1011.1
20260506020105 62 215 2.0 6.0 0.00 0.00 0.00 73 1011.1
20260506015604 62 206 1.0 3.0 0.00 0.00 0.00 73 1011.0
20260506015104 62 196 3.0 9.0 0.00 0.00 0.00 73 1011.1
20260506014604 62 170 4.0 10.0 0.00 0.00 0.00 73 1011.0
20260506014104 62 209 3.0 5.0 0.00 0.00 0.00 73 1010.9
20260506013604 62 186 3.0 9.0 0.00 0.00 0.00 73 1010.8
20260506012604 62 212 2.0 6.0 0.00 0.00 0.00 72 1010.7
20260506012104 62 198 1.0 3.0 0.00 0.00 0.00 72 1010.7
20260506011604 62 205 1.0 3.0 0.00 0.00 0.00 72 1010.6
20260506010605 63 184 1.0 5.0 0.00 0.00 0.00 71 1010.5
20260506010104 63 190 1.0 6.0 0.00 0.00 0.00 71 1010.5
20260506005605 63 198 2.0 5.0 0.00 0.00 0.00 70 1010.4
20260506005105 63 209 1.0 3.0 0.00 0.00 0.00 70 1010.2
20260506004604 63 214 2.0 6.0 0.00 0.00 0.00 70 1010.2
20260506004105 63 197 2.0 5.0 0.00 0.00 0.00 70 1010.2
20260506003104 63 163 2.0 8.0 0.00 0.00 0.00 70 1010.0
20260506002604 63 212 1.0 5.0 0.00 0.00 0.00 69 1010.0
20260506002105 64 201 2.0 9.0 0.00 0.00 0.00 69 1010.0
20260506001604 64 184 1.0 6.0 0.00 0.00 0.00 68 1009.9
20260506001105 64 203 2.0 3.0 0.00 0.00 0.00 68 1009.7
20260506000604 64 204 1.0 12.0 0.00 0.00 0.00 68 1009.8
20260505235104 65 179 1.0 3.0 0.00 0.00 0.00 67 1009.6
20260505234105 65 166 0.0 3.0 0.00 0.00 0.00 66 1009.5
20260505233604 65 221 1.0 6.0 0.00 0.00 0.00 65 1009.5
20260505233104 66 198 1.0 3.0 0.00 0.00 0.00 65 1009.4
20260505231604 66 179 2.0 7.0 0.00 0.00 0.00 64 1009.2